Time,TemperatureF,DewpointF,PressureIn,WindDirection,WindDirectionDegrees,WindSpeedMPH,WindSpeedGustMPH,Humidity,HourlyPrecipIn,Conditions,Clouds,dailyrainin,SoftwareType,DateUTC
2013-11-22 00:14:00,43.5,43.0,30.15,SSW,207,0.0,0.0,97,0.03,,,0.01,weatherlink.com 1.10,2013-11-22 05:14:00,
2013-11-22 00:29:00,43.4,43.0,30.15,SSW,207,0.0,0.0,97,0.02,,,0.01,weatherlink.com 1.10,2013-11-22 05:29:00,
2013-11-22 00:44:00,43.3,43.0,30.14,WSW,240,0.0,1.0,97,0.02,,,0.02,weatherlink.com 1.10,2013-11-22 05:44:00,
2013-11-22 01:00:00,43.3,43.0,30.14,SE,143,0.0,1.0,97,0.02,,,0.02,weatherlink.com 1.10,2013-11-22 06:00:00,
2013-11-22 01:15:00,43.3,43.0,30.14,WSW,245,2.0,2.0,97,0.01,,,0.02,weatherlink.com 1.10,2013-11-22 06:15:00,
2013-11-22 01:30:00,43.3,43.0,30.14,West,273,1.0,2.0,97,0.01,,,0.02,weatherlink.com 1.10,2013-11-22 06:30:00,
2013-11-22 01:45:00,43.3,43.0,30.13,SSE,165,0.0,2.0,97,0.00,,,0.02,weatherlink.com 1.10,2013-11-22 06:45:00,
2013-11-22 02:00:00,43.3,43.0,30.13,SSE,151,0.0,1.0,97,0.00,,,0.02,weatherlink.com 1.10,2013-11-22 07:00:00,
2013-11-22 02:15:00,43.3,43.0,30.13,SW,233,0.0,1.0,97,0.00,,,0.02,weatherlink.com 1.10,2013-11-22 07:15:00,
2013-11-22 02:30:00,43.3,43.0,30.14,WSW,248,0.0,2.0,97,0.00,,,0.02,weatherlink.com 1.10,2013-11-22 07:30:00,
2013-11-22 02:45:00,43.3,43.0,30.13,WSW,250,0.0,2.0,97,0.00,,,0.02,weatherlink.com 1.10,2013-11-22 07:45:00,
2013-11-22 03:00:00,43.3,43.0,30.12,SSW,208,0.0,0.0,97,0.00,,,0.02,weatherlink.com 1.10,2013-11-22 08:00:00,
2013-11-22 03:15:00,43.3,43.0,30.13,WSW,257,1.0,1.0,97,0.00,,,0.02,weatherlink.com 1.10,2013-11-22 08:15:00,
2013-11-22 03:30:00,43.3,43.0,30.12,WSW,255,0.0,1.0,97,0.00,,,0.02,weatherlink.com 1.10,2013-11-22 08:30:00,
2013-11-22 03:45:00,43.3,43.0,30.12,SW,225,1.0,1.0,97,0.00,,,0.02,weatherlink.com 1.10,2013-11-22 08:45:00,
2013-11-22 04:00:00,43.4,43.0,30.12,West,260,1.0,2.0,97,0.00,,,0.02,weatherlink.com 1.10,2013-11-22 09:00:00,
2013-11-22 04:15:00,43.5,43.0,30.13,WSW,242,1.0,2.0,97,0.00,,,0.02,weatherlink.com 1.10,2013-11-22 09:15:00,
2013-11-22 04:30:00,43.5,43.0,30.13,West,266,1.0,3.0,97,0.00,,,0.02,weatherlink.com 1.10,2013-11-22 09:30:00,
2013-11-22 04:45:00,43.6,43.0,30.12,West,270,1.0,2.0,98,0.00,,,0.02,weatherlink.com 1.10,2013-11-22 09:45:00,
2013-11-22 05:00:00,43.7,43.0,30.12,WNW,303,1.0,4.0,98,0.00,,,0.02,weatherlink.com 1.10,2013-11-22 10:00:00,
2013-11-22 05:15:00,43.7,43.0,30.12,NW,313,0.0,3.0,98,0.00,,,0.02,weatherlink.com 1.10,2013-11-22 10:15:00,
2013-11-22 05:30:00,43.8,43.0,30.12,NW,312,1.0,2.0,98,0.00,,,0.02,weatherlink.com 1.10,2013-11-22 10:30:00,
2013-11-22 05:45:00,43.8,43.0,30.11,NNW,328,1.0,3.0,98,0.00,,,0.02,weatherlink.com 1.10,2013-11-22 10:45:00,
2013-11-22 06:00:00,43.9,43.0,30.12,WNW,302,1.0,4.0,98,0.00,,,0.02,weatherlink.com 1.10,2013-11-22 11:00:00,
2013-11-22 06:15:00,43.9,43.0,30.12,NW,316,1.0,3.0,98,0.00,,,0.02,weatherlink.com 1.10,2013-11-22 11:15:00,
2013-11-22 06:30:00,43.9,43.0,30.12,West,262,2.0,3.0,98,0.00,,,0.02,weatherlink.com 1.10,2013-11-22 11:30:00,
2013-11-22 06:45:00,43.9,43.0,30.12,WNW,288,2.0,3.0,98,0.00,,,0.02,weatherlink.com 1.10,2013-11-22 11:45:00,
2013-11-22 07:00:00,44.0,44.0,30.12,NW,307,0.0,3.0,98,0.00,,,0.02,weatherlink.com 1.10,2013-11-22 12:00:00,
2013-11-22 07:15:00,43.9,43.0,30.12,West,271,1.0,3.0,98,0.00,,,0.02,weatherlink.com 1.10,2013-11-22 12:15:00,
2013-11-22 07:30:00,44.0,44.0,30.13,WNW,290,0.0,3.0,98,0.00,,,0.02,weatherlink.com 1.10,2013-11-22 12:30:00,
2013-11-22 07:45:00,44.0,44.0,30.13,WNW,297,2.0,4.0,98,0.00,,,0.02,weatherlink.com 1.10,2013-11-22 12:45:00,
2013-11-22 08:00:00,44.0,44.0,30.12,NW,312,2.0,7.0,98,0.00,,,0.02,weatherlink.com 1.10,2013-11-22 13:00:00,
2013-11-22 08:15:00,43.9,43.0,30.13,NW,319,3.0,9.0,98,0.01,,,0.03,weatherlink.com 1.10,2013-11-22 13:15:00,
2013-11-22 08:30:00,43.3,43.0,30.13,NW,314,5.0,10.0,98,0.01,,,0.03,weatherlink.com 1.10,2013-11-22 13:30:00,
2013-11-22 08:45:00,43.0,43.0,30.14,NW,316,6.0,7.0,98,0.01,,,0.03,weatherlink.com 1.10,2013-11-22 13:45:00,
2013-11-22 09:00:00,42.4,42.0,30.14,WNW,300,6.0,11.0,97,0.01,,,0.03,weatherlink.com 1.10,2013-11-22 14:00:00,
2013-11-22 09:15:00,41.8,41.0,30.14,WNW,298,2.0,9.0,97,0.00,,,0.03,weatherlink.com 1.10,2013-11-22 14:15:00,
2013-11-22 09:30:00,41.5,41.0,30.16,NW,316,6.0,8.0,97,0.00,,,0.03,weatherlink.com 1.10,2013-11-22 14:30:00,
2013-11-22 09:45:00,41.3,41.0,30.16,WNW,302,4.0,9.0,97,0.00,,,0.03,weatherlink.com 1.10,2013-11-22 14:45:00,
2013-11-22 10:00:00,41.2,40.0,30.17,NNW,341,5.0,9.0,97,0.00,,,0.03,weatherlink.com 1.10,2013-11-22 15:00:00,
2013-11-22 10:15:00,40.9,40.0,30.18,NW,312,8.0,13.0,96,0.00,,,0.03,weatherlink.com 1.10,2013-11-22 15:15:00,
2013-11-22 10:30:00,40.3,39.0,30.18,North,349,4.0,13.0,96,0.00,,,0.03,weatherlink.com 1.10,2013-11-22 15:30:00,
2013-11-22 10:46:00,39.7,39.0,30.19,WNW,296,8.0,14.0,96,0.01,,,0.04,weatherlink.com 1.10,2013-11-22 15:46:00,
2013-11-22 11:01:00,37.9,37.0,30.20,NW,326,6.0,18.0,95,0.01,,,0.04,weatherlink.com 1.10,2013-11-22 16:01:00,
2013-11-22 11:16:00,36.8,36.0,30.21,NNW,336,15.0,18.0,95,0.01,,,0.04,weatherlink.com 1.10,2013-11-22 16:16:00,
2013-11-22 11:31:00,36.1,35.0,30.21,NW,312,6.0,15.0,95,0.01,,,0.04,weatherlink.com 1.10,2013-11-22 16:31:00,
2013-11-22 11:46:00,35.7,34.0,30.22,WNW,302,7.0,17.0,95,0.00,,,0.04,weatherlink.com 1.10,2013-11-22 16:46:00,
2013-11-22 12:01:00,35.1,34.0,30.21,NNW,338,9.0,13.0,95,0.01,,,0.05,weatherlink.com 1.10,2013-11-22 17:01:00,
2013-11-22 12:16:00,34.6,33.0,30.21,NW,312,7.0,14.0,95,0.01,,,0.05,weatherlink.com 1.10,2013-11-22 17:16:00,
2013-11-22 12:31:00,34.7,34.0,30.22,NNW,329,6.0,13.0,96,0.01,,,0.05,weatherlink.com 1.10,2013-11-22 17:31:00,
2013-11-22 12:46:00,34.9,34.0,30.23,WNW,293,1.0,12.0,96,0.01,,,0.05,weatherlink.com 1.10,2013-11-22 17:46:00,
2013-11-22 13:01:00,34.8,34.0,30.24,NE,36,8.0,18.0,95,0.00,,,0.05,weatherlink.com 1.10,2013-11-22 18:01:00,
2013-11-22 13:16:00,34.8,33.0,30.23,WNW,300,9.0,16.0,93,0.00,,,0.05,weatherlink.com 1.10,2013-11-22 18:16:00,
2013-11-22 13:31:00,34.9,33.0,30.23,WNW,303,6.0,18.0,91,0.00,,,0.05,weatherlink.com 1.10,2013-11-22 18:31:00,
2013-11-22 13:46:00,35.1,33.0,30.24,NW,311,6.0,12.0,91,0.00,,,0.05,weatherlink.com 1.10,2013-11-22 18:46:00,
2013-11-22 14:01:00,35.1,32.0,30.24,NNW,340,9.0,19.0,89,0.00,,,0.05,weatherlink.com 1.10,2013-11-22 19:01:00,
2013-11-22 14:16:00,35.3,32.0,30.24,WNW,300,7.0,10.0,89,0.00,,,0.05,weatherlink.com 1.10,2013-11-22 19:16:00,
2013-11-22 14:31:00,35.6,32.0,30.24,NNW,336,15.0,18.0,85,0.00,,,0.05,weatherlink.com 1.10,2013-11-22 19:31:00,
2013-11-22 14:46:00,35.7,31.0,30.24,North,350,10.0,17.0,83,0.00,,,0.05,weatherlink.com 1.10,2013-11-22 19:46:00,
2013-11-22 15:01:00,36.2,31.0,30.25,North,1,10.0,17.0,80,0.00,,,0.05,weatherlink.com 1.10,2013-11-22 20:01:00,
2013-11-22 15:16:00,36.0,30.0,30.25,NNE,17,3.0,14.0,80,0.00,,,0.05,weatherlink.com 1.10,2013-11-22 20:16:00,
2013-11-22 15:31:00,36.2,31.0,30.25,NE,41,3.0,11.0,80,0.00,,,0.05,weatherlink.com 1.10,2013-11-22 20:31:00,
2013-11-22 15:46:00,36.1,31.0,30.27,North,1,6.0,11.0,81,0.00,,,0.05,weatherlink.com 1.10,2013-11-22 20:46:00,
2013-11-22 16:01:00,35.7,29.0,30.28,NNW,329,8.0,13.0,75,0.00,,,0.05,weatherlink.com 1.10,2013-11-22 21:01:00,
2013-11-22 16:16:00,36.2,29.0,30.29,NW,309,5.0,19.0,76,0.00,,,0.05,weatherlink.com 1.10,2013-11-22 21:16:00,
2013-11-22 16:31:00,36.0,29.0,30.30,NE,37,3.0,12.0,76,0.00,,,0.05,weatherlink.com 1.10,2013-11-22 21:31:00,
2013-11-22 16:46:00,35.7,29.0,30.30,NNW,340,10.0,14.0,76,0.00,,,0.05,weatherlink.com 1.10,2013-11-22 21:46:00,
2013-11-22 17:01:00,35.1,28.0,30.31,NNW,328,5.0,13.0,76,0.00,,,0.05,weatherlink.com 1.10,2013-11-22 22:01:00,
2013-11-22 17:16:00,34.4,28.0,30.32,WNW,302,1.0,9.0,78,0.00,,,0.05,weatherlink.com 1.10,2013-11-22 22:16:00,
2013-11-22 17:31:00,34.0,28.0,30.33,NW,316,2.0,9.0,79,0.00,,,0.05,weatherlink.com 1.10,2013-11-22 22:31:00,
2013-11-22 17:47:00,34.0,28.0,30.33,NW,307,4.0,9.0,79,0.00,,,0.05,weatherlink.com 1.10,2013-11-22 22:47:00,
2013-11-22 18:02:00,33.5,28.0,30.34,WNW,291,3.0,9.0,80,0.00,,,0.05,weatherlink.com 1.10,2013-11-22 23:02:00,
2013-11-22 18:17:00,33.0,27.0,30.33,North,360,2.0,6.0,80,0.00,,,0.05,weatherlink.com 1.10,2013-11-22 23:17:00,
2013-11-22 18:33:00,32.3,27.0,30.34,WNW,300,3.0,4.0,81,0.00,,,0.05,weatherlink.com 1.10,2013-11-22 23:33:00,
2013-11-22 18:47:00,31.7,27.0,30.34,WNW,291,4.0,6.0,83,0.00,,,0.05,weatherlink.com 1.10,2013-11-22 23:47:00,
2013-11-22 19:02:00,31.8,27.0,30.35,North,360,5.0,8.0,82,0.00,,,0.05,weatherlink.com 1.10,2013-11-23 00:02:00,
2013-11-22 19:17:00,31.5,27.0,30.36,NW,307,6.0,12.0,82,0.00,,,0.05,weatherlink.com 1.10,2013-11-23 00:17:00,
2013-11-22 19:32:00,31.2,26.0,30.36,NW,305,4.0,9.0,81,0.00,,,0.05,weatherlink.com 1.10,2013-11-23 00:32:00,
2013-11-22 19:47:00,30.8,26.0,30.35,WNW,300,2.0,7.0,81,0.00,,,0.05,weatherlink.com 1.10,2013-11-23 00:47:00,
2013-11-22 20:02:00,30.2,25.0,30.35,NW,319,2.0,6.0,82,0.00,,,0.05,weatherlink.com 1.10,2013-11-23 01:02:00,
2013-11-22 20:17:00,29.9,25.0,30.35,NNW,341,1.0,7.0,82,0.00,,,0.05,weatherlink.com 1.10,2013-11-23 01:17:00,
2013-11-22 20:32:00,29.5,25.0,30.34,NW,326,0.0,5.0,83,0.00,,,0.05,weatherlink.com 1.10,2013-11-23 01:32:00,
2013-11-22 20:47:00,28.8,25.0,30.34,NW,316,0.0,1.0,84,0.00,,,0.05,weatherlink.com 1.10,2013-11-23 01:47:00,
2013-11-22 21:02:00,27.9,24.0,30.33,SW,229,2.0,2.0,86,0.00,,,0.05,weatherlink.com 1.10,2013-11-23 02:02:00,
2013-11-22 21:17:00,27.6,24.0,30.33,WSW,257,0.0,1.0,86,0.00,,,0.05,weatherlink.com 1.10,2013-11-23 02:17:00,
2013-11-22 21:32:00,27.2,24.0,30.34,West,269,0.0,1.0,87,0.00,,,0.05,weatherlink.com 1.10,2013-11-23 02:32:00,
2013-11-22 21:47:00,26.9,24.0,30.34,SW,225,1.0,2.0,88,0.00,,,0.05,weatherlink.com 1.10,2013-11-23 02:47:00,
2013-11-22 22:02:00,26.7,24.0,30.34,WSW,251,0.0,1.0,89,0.00,,,0.05,weatherlink.com 1.10,2013-11-23 03:02:00,
2013-11-22 22:17:00,26.6,24.0,30.34,West,267,0.0,4.0,90,0.00,,,0.05,weatherlink.com 1.10,2013-11-23 03:17:00,
2013-11-22 22:32:00,26.6,24.0,30.34,WNW,290,0.0,3.0,90,0.00,,,0.05,weatherlink.com 1.10,2013-11-23 03:32:00,
2013-11-22 22:47:00,26.6,24.0,30.34,West,262,0.0,2.0,89,0.00,,,0.05,weatherlink.com 1.10,2013-11-23 03:47:00,
2013-11-22 23:02:00,26.5,24.0,30.34,SSW,200,2.0,4.0,89,0.00,,,0.05,weatherlink.com 1.10,2013-11-23 04:02:00,
2013-11-22 23:17:00,26.4,24.0,30.34,WNW,289,0.0,3.0,89,0.00,,,0.05,weatherlink.com 1.10,2013-11-23 04:17:00,
2013-11-22 23:32:00,26.1,23.0,30.34,West,260,0.0,3.0,89,0.00,,,0.05,weatherlink.com 1.10,2013-11-23 04:32:00,
2013-11-22 23:47:00,25.8,23.0,30.34,West,267,1.0,1.0,90,0.00,,,0.05,weatherlink.com 1.10,2013-11-23 04:47:00,